Miscellaneous Local Product
Issued by NWS North Platte, NE

Home | Current Version | Previous Version | Text Only | Print | Product List | Glossary On
Versions: 1 2 3 4 5 6 7 8 9 10 11 12 13 14 15 16 17 18 19 20 21 22 23 24 25 26 27 28 29 30 31 32 33 34 35 36 37 38 39 40 41 42 43 44 45 46 47 48 49 50
000
AXUS43 KLBF 261710
MISLBF


WESTERN AND NORTH CENTRAL NEBRASKA HOURLY WEATHER ROUNDUP
NATIONAL WEATHER SERVICE NORTH PLATTE NE
1200 PM CDT THU APR 26 2018

NOTE: "FAIR" INDICATES FEW OR NO CLOUDS BELOW 12,000 FEET WITH NO
SIGNIFICANT WEATHER AND/OR OBSTRUCTIONS TO VISIBILITY.

NOTE: STATIONS NOT REPORTING VARIABLES SUCH AS SKY/WEATHER OR
PRESSURE ARE PROVIDED BY RAWS AND APRS NETWORKS AND ARE NOT UNDER
NATIONAL WEATHER SERVICE QUALITY CONTROL.

...OBSERVATIONS IN AND NEAR THE EASTERN PANHANDLE OF NEBRASKA...

CITY           SKY/WX    TMP DP  RH WIND       PRES   REMARKS
PINE RIDGE     SUNNY     57  30  35 NW17G23   30.24S
GORDON         FAIR      55  32  40 N18G33    30.23S
CHADRON        PTSUNNY   59  30  33 N17G25    30.25R
ALLIANCE       MOSUNNY   55  32  41 N28G36    30.23R
SIDNEY         MOSUNNY   56  30  37 N22G38    30.24R
CRESCENT LAKE    N/A     55  29  37 N20G33      N/A
$$

...OBSERVATIONS IN NORTHERN NEBRASKA AND FAR SOUTHERN SOUTH DAKOTA...

CITY           SKY/WX    TMP DP  RH WIND       PRES   REMARKS
WINNER         FAIR      60  27  28 N24G32    30.16R
VALENTINE      SUNNY     57  27  31 N22G32    30.19R
AINSWORTH      SUNNY     55  29  37 N30       30.17R
O`NEILL        SUNNY     59  29  32 N30G38    30.10R
THEDFORD       SUNNY     57  31  36 N24G36    30.17R
BROKEN BOW     PTSUNNY   59  36  42 N30G47    30.09R
ORD            PTSUNNY   58  36  43 N30G41    30.07R
ALBION         CLOUDY    59  41  52 N18G32    30.02R
VALENTINE NWR    N/A     53  28  37 N16G29      N/A
HALSEY           N/A     56  29  36 N14G35      N/A
BUTTE            N/A     54  32  43 NE25G37     N/A
CHAMBERS         N/A     59  33  37 N14G23      N/A
EWING            N/A     59  38  45 N15G30      N/A
$$

...OBSERVATIONS IN SOUTHWEST NEBRASKA AND FAR NORTHEAST COLORADO...

CITY           SKY/WX    TMP DP  RH WIND       PRES   REMARKS
WRAY           FAIR      59  30  33 N35G40    30.18R
HOLYOKE        FAIR      59  32  36 N31G41    30.21R
IMPERIAL       SUNNY     60  30  32 N35G47    30.16R
OGALLALA       SUNNY     58  32  37 N23G35    30.19R
NORTH PLATTE   SUNNY     60  33  36 N26G44    30.14R
MCCOOK           N/A     56  38  50 N28G40    30.08R
LEXINGTON      CLOUDY    55  35  47 N28G39    30.09R
STAPLETON        N/A     55  33  44 NE12G23     N/A
GOTHENBURG       N/A     52  34  50 N13         N/A
CALLAWAY         N/A     53  37  55 N26         N/A
$$

...OBSERVATIONS IN CENTRAL LINCOLN COUNTY AREA...

CITY           SKY/WX    TMP DP  RH WIND       PRES   REMARKS
N.P. AIRPORT   SUNNY     60  33  36 N26G44    30.14R
N.P. DOWNTOWN    N/A     57  35  43 N13G24      N/A
N.P. SOUTHEAST   N/A     57  34  42 N13G24      N/A
N.P. HILLCREST   N/A     56  33  41 N33G45      N/A
$$

...OBSERVATIONS ACROSS THE ROCKIES AND WESTERN HIGH PLAINS...

CITY           SKY/WX    TMP DP  RH WIND       PRES   REMARKS
RAPID CITY     SUNNY     56  30  37 N10       30.24S
SCOTTSBLUFF    SUNNY     58  31  35 N17G30    30.25S
CHEYENNE       PTSUNNY   45  25  45 N15G29    30.30R
DENVER         CLOUDY    51  29  42 N18G26    30.29R
BERTHOUD PASS  FAIR      21  12  68 NW16G32   30.36R WCI   7
MONARCH PASS   SUNNY     32   9  37 N15G25    30.46R WCI  22
ASPEN          SUNNY     52  12  20 N15       30.27R
STEAMBOAT      FAIR      49  20  33 NW8       30.28F
LARAMIE        CLOUDY    41  22  46 N10       30.32R
CASPER         PTSUNNY   49  32  52 SW8       30.31S
$$

...OBSERVATIONS ACROSS THE NORTHERN PLAINS...

CITY           SKY/WX    TMP DP  RH WIND       PRES   REMARKS
BISMARCK       SUNNY     59  27  29 NW17G29   30.15R
FARGO          FAIR      52  27  38 N31G40    30.05R
PIERRE         SUNNY     59  29  31 NW15G24   30.16S
SIOUX FALLS    MOSUNNY   57  31  37 N29G39    30.01R
$$

...OBSERVATIONS ACROSS THE CENTRAL AND SOUTHERN PLAINS...

CITY           SKY/WX    TMP DP  RH WIND       PRES   REMARKS
OMAHA          PTSUNNY   62  36  37 S9        29.96F
GRAND ISLAND   SUNNY     62  40  44 N21G31    30.03R
KANSAS CITY    PTSUNNY   59  42  53 SW10      30.01F
WICHITA        CLOUDY    59  43  55 VRB3      30.02S
DODGE CITY     PTSUNNY   62  38  40 W6        30.00R
OKLAHOMA CITY  MOSUNNY   59  42  53 VRB5      30.03F
DALLAS         MOSUNNY   63  44  50 NW6       30.03F
AMARILLO       SUNNY     67  35  30 NW21G29   30.02R
$$




USA.gov is the U.S. government's official web portal to all federal, state and local government web resources and services.